Regional Weather Roundup
Issued by NWS Wakefield, VA

Home | Current Version | Previous Version | Text Only | Print | Product List | Glossary Off
Versions: 1 2 3 4 5 6 7 8 9 10 11 12 13 14 15 16 17 18 19 20 21 22 23 24 25 26 27

000
ASUS41 KAKQ 291015
RWRAKQ

REGIONAL WEATHER ROUNDUP
NATIONAL WEATHER SERVICE WAKEFIELD VA
600 AM EDT MON AUG 29 2016

Note: "fair" indicates few or no clouds below 12,000 feet with no
significant weather and/or obstructions to visibility. * = Denotes
station may not report precipitation (e.g., rain,snow,etc.),
thunder or fog.

VAZ042-051-052>054-056-291100-
NORTHERN VIRGINIA

CITY           SKY/WX    TMP DP  RH WIND       PRES   REMARKS
WASH NATIONAL  PTCLDY    72  67  84 W5        30.15R
DULLES         PTCLDY    67  65  93 CALM      30.15R
FORT BELVOIR   CLEAR     66  65  95 NW1       30.14R
QUANTICO       CLEAR     71  67  87 NW5       30.15R
FREDERICKSBRG* CLEAR     67  67 100 CALM      30.13S
STAFFORD*      CLEAR     62  62  97 CALM      30.18S FOG
WARRENTON      CLEAR     65  60  86 CALM      30.15R FOG
CULPEPER*      CLEAR     65  65 100 CALM      30.16S FOG
MANASSAS*      CLEAR     64  64 100 CALM      30.15S
LEESBURG*      CLEAR     68  68 100 N6        30.16R
WINCHESTER     CLEAR     66  64  94 CALM      30.16R
FRONT ROYAL*   FAIR      66  64  94 SW5       30.15S
LURAY*         FAIR     N/A N/A N/A CALM      30.17F
$$

VAZ048-049-060>072-079>083-291100-
CENTRAL AND SOUTH CENTRAL VIRGINIA

CITY           SKY/WX    TMP DP  RH WIND       PRES   REMARKS
RICHMOND       PTCLDY    67  65  93 N6        30.13R
CHESTERFIELD*  FAIR      66  52  59 NW5       30.15R
PETERSBURG*    CLOUDY   N/A N/A N/A CALM      30.13S
HANOVER        CLOUDY    65  63  93 CALM      30.15S
TAPPAHANNOCK*  CLOUDY    65  65 100 CALM      30.14S
QUINTON*       FAIR      64  64  99 CALM      30.12F
CHARLOTTSVILLE CLEAR     68  65  90 CALM      30.15F
GORDONSVILLE*  FAIR      64  64 100 CALM      30.14F
ORANGE*          N/A     64  64 100 CALM      30.16F
LOUISA*        FOG       64  64 100 CALM      30.14S VSB 3/4
BUMPASS*       FAIR      64  64 100 CALM      30.14F
FARMVILLE*     CLOUDY   N/A N/A N/A CALM      30.13F
CREWE*         FAIR      67  67 100 CALM      30.14R
FORT PICKETT*  NOT AVBL
CHASE CITY*    FAIR      68  66  95 CALM      30.14S
CLARKSVILLE*   FAIR      70  70 100 CALM      30.13R
SOUTH HILL*    CLOUDY    68  68 100 CALM      30.19R
LAWRENCEVILLE* FAIR      68  68 100 CALM      30.13R
EMPORIA*       CLOUDY    66  66 100 CALM      30.12F
$$

VAZ088>098-291100-
SOUTHEAST VIRGINIA

CITY           SKY/WX    TMP DP  RH WIND       PRES   REMARKS
NORFOLK        MOCLDY    77  73  87 NE9       30.10S
VIRGINIA BEACH CLOUDY    82  72  71 NE5       30.08F
NORFOLK NAVAL  MOCLDY    77  72  84 NE8       30.11F
WEST POINT*    CLEAR     63  62  98 CALM      30.13F
SALUDA*        FAIR      68  67  99 CALM      30.11S
NEWPORT NEWS   CLOUDY    72  71  97 CALM      30.11S
LANGLEY AFB    PTCLDY    75  72  88 NE12      30.10S
FORT EUSTIS    MOCLDY    72  69  90 VRB3      30.08F
WILLIAMSBURG*  CLOUDY    70  70 100 N3        30.12R
HR EXEC AP*    CLOUDY    75  72  88 NE8       30.12F
FRANKLIN*      CLEAR     68  67  96 CALM      30.11S
US460-WAKEFLD  PTCLDY    67  65  93 CALM      30.11S
$$

VAZ020-022-025-037-045-291100-
WEST CENTRAL AND SOUTHWEST VIRGINIA

CITY           SKY/WX    TMP DP  RH WIND       PRES   REMARKS
STAUNTON*      CLEAR     62  61  97 CALM      30.21R
WAYNESBORO*    FAIR      64  62  93 CALM      30.19S
HOT SPRINGS VA CLEAR     64  59  83 CALM      30.29F
LYNCHBURG      CLOUDY    66  65  96 CALM      30.18F
DANVILLE       MOCLDY    67  66  97 CALM      30.15S
SOUTH BOSTON*  FAIR      69  67  95 N3        30.14S
MARTINSVILLE   PTCLDY    63  62  97 CALM      30.20S FOG
ROANOKE        CLEAR     66  63  90 CALM      30.20F
BLACKSBURG     CLEAR     62  62  99 CALM      30.26F FOG
DUBLIN*        CLEAR     63  62  99 CALM      30.25F
MARION*        CLEAR     61  60  96 CALM      30.28S FOG
HILLSVILLE*    CLEAR     60  60 100 CALM      30.24F
RICHLANDS*     FAIR      70  62  75 SE3       30.24S
WISE*          PTCLDY    70  61  73 S5        30.26R
ABINGDON*      CLEAR     68  64  88 NE3       30.23S
$$

MDZ021>025-VAZ099-100-291100-
SOUTHERN MARYLAND AND THE DELMARVA PENINSULA

CITY           SKY/WX    TMP DP  RH WIND       PRES   REMARKS
PATUXENT RIVER PTCLDY    66  64  93 W5        30.12R
BAY BRIDGE APT CLEAR     72  68  88 CALM      30.13R
LEONARDTOWN    CLEAR     64  63  94 CALM      30.14S
DOVER          CLEAR     68  68 100 SW2       30.11S
GEORGETOWN     CLEAR     64  63  96 CALM      30.13S
EASTON         CLEAR     68  68 100 CALM      30.16S
CAMBRIDGE      CLEAR     61  61 100 CALM      30.12S
SALISBURY      CLEAR     63  62  97 NW6       30.13S
OCEAN CITY     PTCLDY    64  61  90 CALM      30.12S
WALLOPS ISLAND PTCLDY    68  55  63 N5        30.12F
ACCOMACK*      MOCLDY    65  62  91 N3        30.12S
$$

NCZ012>017-030>032-291100-
NORTH CENTRAL AND EASTERN NORTH CAROLINA

CITY           SKY/WX    TMP DP  RH WIND       PRES   REMARKS
ROANOKE RAPIDS FAIR      68  68 100 NE5       30.11F
RALEIGH        CLOUDY    69  68  96 CALM      30.13S
ELIZABETH CITY PTCLDY    76  74  93 N10       30.09S
AHOSKIE*       CLOUDY    69  68  98 CALM      30.11S
EDENTON*       PTCLDY   N/A N/A N/A N5        30.10S
CURRITUCK*       N/A     79  78  96 NE6       30.09F
KILL DEVIL HLS CLOUDY    78  78 100 CALM      30.06F
MANTEO         PTCLDY    78  78  98 E6        30.07F
CAPE HATTERAS  PTCLDY    78  74  87 NE6       30.06S
TARBORO*       FAIR      72  71  96 CALM      30.12R
GOLDSBORO      CLOUDY    74  74 100 NE7       30.08S
WASHINGTON     CLOUDY    73  72  98 N5        30.09S
GREENVILLE     CLOUDY    72  72 100 N3        30.11S
NEW BERN       CLOUDY    76  74  93 NE7       30.08S
WILMINGTON     CLOUDY    75  74  96 NE7       30.06F
$$

VAZ048-291100-
ELSEWHERE

CITY           SKY/WX    TMP DP  RH WIND       PRES   REMARKS
HARRISBURG PA  PTCLDY    71  68  90 CALM      30.15R
BALTIMORE      PTCLDY    68  66  93 W3        30.14R
ANNAPOLIS      CLEAR     73  68  84 NW3       30.13R
ANDREWS AFB    CLEAR     69  65  87 W3        30.14R
PHILADELPHIA   PTCLDY    73  69  87 VRB5      30.14R
HENDERSON NC   CLOUDY    66  65  97 CALM      30.14R
GREENSBORO     CLOUDY    70  68  93 N3        30.14F
ROCKY MOUNT    CLOUDY    70  70 100 N7        30.11S
$$

VAZ100-291100-
MARINE

STATION/POSITION TIME  TEMP    WIND        PRES    WAVE   SWELL
                       AIR SEA DIR/SP/G            HT/PER HT/PER
                 (UTC) (F)     (DEG/KT/KT) (MB)    (FT/S) (FT/S)
CAPE MAY NJ      0900   70 74   CALM  /  2 1019.6F
LEWES DE         0900   70 74   CALM  /  1 1019.9F
OCEAN-CITY-INLET 0900   74 76   CALM  /  2 1020.4F
WACHAPREAGUE VA  0900   72 81   10/  2/  4 1019.6F
THOMAS POINT MD  1000   75 82  270/  5/  6 1021.8R
GOOSES REEF MD   1000   76 83  160/  6/ 10 1020.5R   0
COVE POINT MD    0900   75     170/  5/  7 1020.5F
SOLOMONS ISLAND  0900   75 84  190/  3/  4   N/A
PINEY POINT MD   0900           80/  4/  4   N/A
POTOMAC MD       1000   77 83  100/  4/  6 1018.9F   0
CAMBRIDGE MD     0900   71 84   CALM  /  3 1019.1F
LEWISETTA VA     0900   72 83  240/  3/  4 1019.7F
RAPPAHANNOCK LGT 0900           60/ 10/ 11 1020.2F
STINGRAY PT      1000   78 83   10/  6/  8 1020.0F   1/ 2
YORK RVR RNG VA  0900   77      50/ 12/ 14 1019.1F
YORKTOWN VA      0900   75 83   20/  4/  6 1019.1F
JAMESTOWN VA     1000   71 85  360/  6/  6   N/A     0
DOMINION TERM VA 0900   77      60/  6/  8 1019.5F
KIPTOPEKE VA     0900      81   50/  4/  5   N/A
CHES BAY BRIDGE  0900   77 81   10/ 11/ 13 1019.2F
CAPE HENRY VA    0900   77      40/ 14/ 16   N/A
WILLOUBY STN VA  0900   77      30/ 12/ 14   N/A
CAPE HENRY BUOY  0912      80                N/A     4/ 5   2/14
1ST LANDING BUOY 1000   77 77   80/ 12/ 14 1018.6F   3/ 4
CAPE CHARLES BUO 0926      79                N/A     4/ 5   2/13
OFFSHORE WE BUOY 0921      80                N/A     4/13   2/13
64NM E OF VA BCH 0950   78 80  360/  8/ 12 1018.2F   4/ 8   3/ 8
DUCK PIER NC     0900   79 78   40/ 10/ 11 1018.1R
44100 DUCK FRF   0905      80                N/A     4/ 6   2/13
44056 DUCK FRF   0911      78                N/A     4/ 6   2/14
OREGON INLET NC  0900   79 80   30/  3/  4 1018.2F
HATTERAS NC      0900   80 82   60/  4/  6 1017.5F
DIAMOND SHLS NC  0950   83 84   60/ 10/ 14 1017.4F   6/ 9   5/ 9
CAPE LOOKOUT NC  1000   77      10/  7/  9 1017.5F
$$




USA.gov is the U.S. government's official web portal to all federal, state and local government web resources and services.